Weather in Narathiwat

Thailand     6°25′13″N   101°49′15″E
temp.,
°C
wind,
m/s
gust,
m/s
humid.,
%
clouds,
%
prec.,
mm/h
press.,
hPa
HPBL,
m
13 april, tue
tue1301:00+25ssw238735 1.6 1011157
04:00+25s238843 0.3 1010188
07:00+25s22889 0.3 1012157
10:00+29ese447115 0.4 1013743
13:00+30e556821 0.8 1011883
16:00+30e546932 0.3 1008903
19:00+28ese3477100 0.4 1010499
22:00+27se348251 1.9 1012427
14 april, wed
wed1401:00+25ssw338920 2.8 1011178
04:00+25sw2289100 0.4 1010115
07:00+25sw228697 0.5 1012123
10:00+30se01645 0.0 1013696
13:00+29nne437253 1.6 1011487
16:00+29nne4473100 4.1 1008508
19:00+26nw238085 9.3 101091
22:00+26sw338496 2.5 1012112
15 april, thu
thu1501:00+25wsw3386100 2.9 1011125
04:00+25wsw2284100 0.0 1009115
07:00+25sw128210 0.1 1011125
10:00+29e016122 0.0 1012603
13:00+30ne436158 0.0 1010779
16:00+29nne446978 0.0 1008680
19:00+27nnw127813 4.0 1009134
22:00+27s127910 0.3 1011214
16 april, fri
fri1601:00
04:00+25sw22875 0.3 1009113
07:00+25ssw118576 0.3 1011131
10:00+30ese116699 0.0 1012640
13:00+30nne426741 0.6 1010787
16:00+29n337288 1.4 1008619
19:00+27nne128099 4.0 101083
22:00+26s128216 2.6 101276
17 april, sat
sat1701:00+25ssw228535 1.4 101180
04:00+25s338970 0.3 1010137
07:00+25s238750 0.4 1012168
10:00+29se236881 0.1 1013701
13:00+30ene426696 0.3 1010683
16:00+29ene426882 0.4 1009609
19:00+26ne1178100 1.9 101121
22:00+26ese1179100 2.4 101347